Location: Howard City Library
(37.4684°N, 96.2639°W)
Time: 03:26:58
(UTC+00:00)

Daily predictions for brighter satellites

Satellite Brightness Start Highest point End
(mag) Time Altitude Azimuth Time Altitude Azimuth Time Altitude Azimuth
Cosmos 1943 Rocket 3.6 00:24:53 10° SE 00:28:27 17° E 00:32:00 10° ENE
STARLINK-68 4.4 00:27:54 10° SSW 00:31:30 32° SE 00:35:07 10° ENE
COSMOS 2406 4.4 00:26:44 10° NNW 00:32:13 50° WSW 00:37:41 10° S
STARLINK-22 3.9 00:29:03 10° SSW 00:32:15 36° SE 00:35:28 10° ENE
STARLINK-63 4.4 00:29:29 10° SSW 00:33:05 32° SE 00:36:41 10° ENE
Cosmos 2297 3.8 00:27:51 10° S 00:33:23 57° ESE 00:38:54 10° NNE
STARLINK-41 3.7 00:30:22 10° SSW 00:33:38 41° SE 00:36:56 10° ENE
STARLINK-35 4.5 00:31:04 10° SSW 00:34:38 32° SE 00:38:14 10° ENE
STARLINK-51 4.4 00:32:41 10° SSW 00:36:18 33° SE 00:39:55 10° ENE
USA 229 DEB 4.2 00:31:26 10° S 00:37:10 35° ESE 00:43:08 10° NE
USA 229 4.2 00:31:33 10° S 00:37:17 35° ESE 00:43:12 10° NE
YAOGAN 1 3.0 00:33:36 10° SE 00:37:38 40° ENE 00:41:42 10° N
STARLINK-33 3.0 00:34:27 10° SW 00:37:40 63° SE 00:40:56 10° NE
STARLINK-30 4.4 00:34:17 10° SSW 00:37:55 34° SE 00:41:35 10° ENE
[s.n.71218] 4.2 00:35:54 10° WNW 00:38:09 32° SW 00:40:33 10° SSE
[s.n.71212] 4.3 00:35:55 10° WNW 00:38:10 32° SW 00:40:34 10° SSE
[s.n.71105] 4.3 00:35:55 10° WNW 00:38:10 32° SW 00:40:34 10° SSE
[s.n.71227] 4.3 00:35:55 10° WNW 00:38:10 32° SW 00:40:34 10° SSE
[s.n.71254] 4.3 00:35:55 10° WNW 00:38:10 32° SW 00:40:34 10° SSE
[s.n.71247] 4.3 00:35:55 10° WNW 00:38:10 32° SW 00:40:34 10° SSE
[s.n.71231] 4.3 00:35:56 10° WNW 00:38:10 32° SW 00:40:35 10° SSE
[s.n.71220] 4.2 00:35:55 10° WNW 00:38:10 32° SW 00:40:34 10° SSE
[s.n.71206] 4.2 00:35:55 10° WNW 00:38:10 32° SW 00:40:34 10° SSE
[s.n.71232] 4.3 00:35:56 10° WNW 00:38:10 32° SW 00:40:35 10° SSE
[s.n.71208] 4.3 00:35:56 10° WNW 00:38:11 32° SW 00:40:35 10° SSE
[s.n.71271] 4.3 00:35:56 10° WNW 00:38:11 32° SW 00:40:35 10° SSE
[s.n.71235] 4.3 00:35:56 10° WNW 00:38:11 32° SW 00:40:35 10° SSE
[s.n.71154] 4.3 00:35:56 10° WNW 00:38:11 32° SW 00:40:35 10° SSE
[s.n.71229] 4.3 00:35:56 10° WNW 00:38:11 32° SW 00:40:35 10° SSE
[s.n.71197] 4.3 00:35:56 10° WNW 00:38:11 32° SW 00:40:35 10° SSE
[s.n.71226] 4.3 00:35:56 10° WNW 00:38:11 32° SW 00:40:35 10° SSE
[s.n.71198] 4.3 00:35:57 10° WNW 00:38:11 32° SW 00:40:35 10° SSE
[s.n.71199] 4.3 00:35:57 10° WNW 00:38:11 32° SW 00:40:35 10° SSE
[s.n.71191] 4.3 00:35:57 10° WNW 00:38:11 32° SW 00:40:35 10° SSE
[s.n.71210] 4.3 00:35:57 10° WNW 00:38:11 32° SW 00:40:36 10° SSE
[s.n.71189] 4.3 00:35:57 10° WNW 00:38:11 32° SW 00:40:36 10° SSE
[s.n.71222] 4.3 00:35:57 10° WNW 00:38:12 32° SW 00:40:36 10° SSE
[s.n.71219] 4.3 00:35:57 10° WNW 00:38:12 32° SW 00:40:36 10° SSE
[s.n.71233] 4.3 00:35:57 10° WNW 00:38:12 32° SW 00:40:36 10° SSE
[s.n.71217] 4.3 00:35:57 10° WNW 00:38:12 32° SW 00:40:36 10° SSE
[s.n.71270] 4.3 00:35:57 10° WNW 00:38:12 32° SW 00:40:36 10° SSE
[s.n.71215] 4.3 00:35:57 10° WNW 00:38:12 32° SW 00:40:36 10° SSE
[s.n.71204] 4.3 00:35:57 10° WNW 00:38:12 32° SW 00:40:36 10° SSE
[s.n.71187] 4.3 00:35:57 10° WNW 00:38:12 32° SW 00:40:36 10° SSE
Starlink-5 full stack 4.3 00:35:57 10° WNW 00:38:12 32° SW 00:40:37 10° SSE
[s.n.71188] 4.3 00:35:58 10° WNW 00:38:12 32° SW 00:40:37 10° SSE
[s.n.71211] 4.3 00:35:58 10° WNW 00:38:12 32° SW 00:40:37 10° SSE
[s.n.71245] 4.3 00:35:58 10° WNW 00:38:13 32° SW 00:40:37 10° SSE
[s.n.71192] 4.3 00:35:58 10° WNW 00:38:13 32° SW 00:40:37 10° SSE
[s.n.71214] 4.3 00:35:58 10° WNW 00:38:13 32° SW 00:40:37 10° SSE
[s.n.71246] 4.3 00:35:58 10° WNW 00:38:13 32° SW 00:40:37 10° SSE
[s.n.71238] 4.3 00:35:58 10° WNW 00:38:13 32° SW 00:40:37 10° SSE
[s.n.71228] 4.3 00:35:58 10° WNW 00:38:13 32° SW 00:40:37 10° SSE
[s.n.71241] 4.3 00:35:58 10° WNW 00:38:13 32° SW 00:40:37 10° SSE
[s.n.71243] 4.3 00:35:58 10° WNW 00:38:13 32° SW 00:40:37 10° SSE
[s.n.71221] 4.3 00:35:58 10° WNW 00:38:13 32° SW 00:40:37 10° SSE
[s.n.71239] 4.3 00:35:58 10° WNW 00:38:13 32° SW 00:40:37 10° SSE
[s.n.71216] 4.3 00:35:59 10° WNW 00:38:13 32° SW 00:40:38 10° SSE
[s.n.71202] 4.3 00:35:59 10° WNW 00:38:14 32° SW 00:40:38 10° SSE
[s.n.71224] 4.3 00:35:59 10° WNW 00:38:14 32° SW 00:40:38 10° SSE
[s.n.71240] 4.3 00:35:59 10° WNW 00:38:14 32° SW 00:40:38 10° SSE
[s.n.71203] 4.3 00:35:59 10° WNW 00:38:14 32° SW 00:40:38 10° SSE
[s.n.71225] 4.3 00:35:59 10° WNW 00:38:14 32° SW 00:40:38 10° SSE
[s.n.71201] 4.3 00:35:59 10° WNW 00:38:14 32° SW 00:40:38 10° SSE
[s.n.71234] 4.3 00:35:59 10° WNW 00:38:14 32° SW 00:40:38 10° SSE
[s.n.71200] 4.3 00:35:59 10° WNW 00:38:14 32° SW 00:40:38 10° SSE
[s.n.71205] 4.3 00:35:59 10° WNW 00:38:14 32° SW 00:40:38 10° SSE
[s.n.71236] 4.3 00:35:59 10° WNW 00:38:14 32° SW 00:40:38 10° SSE
[s.n.71138] 4.3 00:36:00 10° WNW 00:38:14 32° SW 00:40:39 10° SSE
[s.n.71143] 4.3 00:36:00 10° WNW 00:38:15 32° SW 00:40:39 10° SSE
[s.n.71230] 4.3 00:36:00 10° WNW 00:38:15 32° SW 00:40:39 10° SSE
[s.n.71237] 4.3 00:36:00 10° WNW 00:38:15 32° SW 00:40:39 10° SSE
[s.n.71269] 4.3 00:36:00 10° WNW 00:38:15 32° SW 00:40:39 10° SSE
[s.n.71244] 4.3 00:36:00 10° WNW 00:38:15 32° SW 00:40:39 10° SSE
STARLINK-46 1.9 00:36:00 10° NW 00:38:17 89° NE 00:40:28 10° SE
Starlink-5 placeholder 4.3 00:36:05 10° WNW 00:38:20 32° SW 00:40:45 10° SSE
STARLINK-66 3.0 00:36:05 10° SW 00:39:19 69° SE 00:42:35 10° NE
STARLINK-72 4.3 00:35:55 10° SSW 00:39:35 35° SE 00:43:16 10° ENE
STARLINK-58 3.8 00:36:17 10° SSW 00:39:38 41° SE 00:43:00 10° ENE
STARLINK-55 2.9 00:37:54 10° SW 00:41:09 75° SE 00:44:24 10° NE
STARLINK-50 4.2 00:37:31 10° SSW 00:41:13 37° SE 00:44:57 10° ENE
STARLINK-62 3.7 00:37:55 10° SSW 00:41:19 44° SE 00:44:44 10° ENE
STARLINK-28 2.9 00:39:37 10° SW 00:42:52 86° SE 00:46:08 10° NE
STARLINK-59 4.1 00:39:10 10° SSW 00:42:56 40° SE 00:46:43 10° ENE
STARLINK-34 3.6 00:39:58 10° SSW 00:43:22 46° SE 00:46:47 10° ENE
Cosmos 921 Rocket 4.4 00:40:47 10° SE 00:43:57 19° E 00:47:07 10° NE
STARLINK-56 4.1 00:40:45 10° SSW 00:44:30 40° SE 00:48:11 11° ENE
NOSS 3-1 (A) 4.5 00:41:01 10° SSE 00:44:47 20° ESE 00:48:48 10° ENE
SKYMED 2 4.0 00:41:32 10° N 00:45:51 68° WNW 00:50:08 10° SSW
STARLINK-73 4.1 00:42:21 10° SSW 00:46:08 41° SE 00:49:45 11° ENE
STARLINK-38 4.0 00:43:59 10° SSW 00:47:48 43° SE 00:51:22 11° ENE
Cosmos 2016 Rocket 4.0 00:42:27 10° S 00:48:25 62° E 00:54:26 10° NNE
ADEOS Rocket 3.8 00:40:59 10° NNE 00:48:30 51° E 00:55:55 10° S
Cosmos 1633 Rocket 4.0 00:45:48 10° SE 00:49:21 25° E 00:52:54 10° NE
STARLINK-65 4.0 00:45:37 10° SSW 00:49:26 44° SE 00:52:58 12° ENE
Cosmos 1666 Rocket 4.2 00:46:38 10° SSE 00:50:37 33° E 00:54:38 10° NNE
STARLINK-53 3.8 00:47:18 10° SSW 00:51:11 49° SE 00:54:41 12° ENE
Cosmos 2369 Rocket 3.3 00:47:46 10° SSE 00:51:59 22° E 00:56:14 10° NE
Okean-O 3.7 00:50:52 10° S 00:55:10 50° W 00:59:29 10° NNW
OE (NEXTSAT) 4.3 00:52:46 10° SW 00:56:13 79° SSE 00:58:58 16° ENE
STARLINK-42 3.0 00:53:42 10° SW 00:56:59 88° NW 00:59:52 13° NE
Lacrosse 4 Rocket 1.5 00:57:19 10° SSW 01:01:26 77° WNW 01:05:43 10° NNE
Cosmos 2082 Rocket 2.3 00:56:46 10° NNW 01:02:25 83° WSW 01:08:05 10° SSE
HJ-1C 4.2 01:02:49 10° SE 01:05:40 27° ENE 01:08:32 10° NNE
STARLINK-61 3.8 01:02:47 10° WSW 01:06:39 62° NW 01:10:02 13° NE
Cosmos 2233 Rocket 4.3 01:01:07 10° SSE 01:06:48 42° E 01:12:33 10° NNE
ATLAS 5 CENTAUR R/B 4.3 01:03:04 10° NW 01:08:35 35° WSW 01:14:40 10° S
STARLINK-64 3.3 01:06:18 10° SW 01:09:52 78° NW 01:12:30 17° NE
Cosmos 1782 3.6 01:09:02 10° NNW 01:12:59 56° W 01:16:52 10° S
CZ-2C R/B 4.3 01:13:23 19° E 01:15:47 24° ENE 01:20:18 10° NNE
Cosmos 1862 3.2 01:12:44 10° S 01:16:45 87° E 01:20:45 10° N
Cosmos 1833 Rocket 4.4 01:14:25 10° NW 01:19:32 36° WSW 01:24:35 10° S
SL-4 R/B 3.2 01:16:04 10° NW 01:20:17 31° NNE 01:21:50 25° ENE
H-2A R/B 2.9 01:19:07 19° ESE 01:21:50 30° ENE 01:26:27 10° N
STARLINK-24 3.5 01:19:01 10° SW 01:23:01 83° NW 01:25:21 24° NE
Cosmos 1354 Rocket 4.1 01:23:51 10° NNW 01:29:10 79° WSW 01:34:25 10° SSE
Cosmos 1470 Rocket 3.9 01:26:22 10° SSE 01:30:22 39° E 01:33:03 19° NNE
STARLINK-81 3.6 01:26:32 10° SW 01:30:32 78° NW 01:32:28 30° NE
CSL-04 Rocket 4.1 01:25:22 10° S 01:30:52 65° WSW 01:36:23 10° NNW
STARLINK-1023 2.5 01:29:12 10° SW 01:32:06 73° SE 01:32:10 72° ESE
STARLINK-54 3.7 01:28:24 10° SW 01:32:24 68° NW 01:34:22 28° NE
STARLINK-77 3.6 01:29:50 10° SW 01:33:50 73° NW 01:35:38 31° NE
STARLINK-1007 2.6 01:32:10 10° SW 01:35:09 80° SE 01:35:11 80° ESE
STARLINK-25 3.7 01:31:32 10° SW 01:35:32 70° NW 01:37:16 32° NE
Sich 1 4.1 01:32:37 10° SSW 01:36:46 46° W 01:40:54 10° N
STARLINK-71 3.9 01:33:25 10° WSW 01:37:23 61° NW 01:39:10 30° NNE
STARLINK-79 3.8 01:34:51 10° WSW 01:38:50 65° NW 01:40:26 33° NNE
ARGOS 3.6 01:37:59 34° E 01:39:01 37° ENE 01:43:58 10° N
CZ-4 R/B 3.7 01:35:31 10° SSW 01:39:06 27° W 01:42:43 10° NW
NOSS 3-1 (C) 3.2 01:35:06 10° SW 01:40:26 83° WNW 01:46:07 12° NNE
STARLINK-78 3.9 01:36:31 10° WSW 01:40:29 63° NW 01:42:03 34° NNE
Cosmos 1862 Rocket 3.7 01:37:00 10° N 01:41:09 46° ENE 01:41:09 46° ENE
STARLINK-1010 2.8 01:38:17 10° SW 01:41:08 78° WSW 01:41:08 78° WSW
STARLINK-57 4.0 01:38:18 10° WSW 01:42:15 57° NW 01:43:48 33° NNE
Ariane Rocket 2.9 01:37:25 10° SSE 01:42:28 71° ENE 01:47:33 10° N
STARLINK-1029 3.2 01:39:27 10° SW 01:42:07 55° S 01:42:07 55° S
Meteor 1-10 Rocket 4.5 01:37:19 10° NNW 01:42:55 69° W 01:48:24 10° S
STARLINK-1008 2.9 01:40:20 10° SW 01:43:12 75° W 01:43:12 75° W
STARLINK-49 4.0 01:39:51 10° WSW 01:43:49 59° NW 01:45:13 36° NNE
STARLINK-1016 3.0 01:41:21 10° SW 01:44:10 71° W 01:44:10 71° W
Cosmos 1707 Rocket 4.0 01:40:16 10° NNW 01:44:40 64° W 01:49:04 10° S
STARLINK-1025 3.0 01:41:46 10° SW 01:44:36 71° W 01:44:36 71° W
STARLINK-27 4.0 01:41:32 10° WSW 01:45:29 57° NW 01:46:50 36° NNE
STARLINK-1017 3.0 01:42:28 10° SW 01:45:16 69° W 01:45:16 69° W
STARLINK-1028 3.2 01:43:56 10° SW 01:46:41 64° W 01:46:41 64° W
STARLINK-74 4.1 01:43:11 10° WSW 01:47:08 55° NW 01:48:25 37° NNE
STARLINK-1048 3.2 01:44:42 10° SW 01:47:27 63° W 01:47:27 63° W
STARLINK-1021 3.2 01:44:43 10° SW 01:47:27 62° W 01:47:27 62° W
STARLINK-1049 3.3 01:45:28 10° SW 01:48:11 61° W 01:48:11 61° W
STARLINK-1019 3.3 01:45:36 10° SW 01:48:16 60° W 01:48:16 60° W
STARLINK-39 4.1 01:44:51 10° WSW 01:48:47 53° NW 01:50:00 37° NNE
USA 267 3.2 01:45:17 26° NE 01:49:15 70° SE 01:55:45 10° SW
STARLINK-1051 3.3 01:46:16 10° SW 01:48:57 59° W 01:48:57 59° W
STARLINK-1012 3.4 01:46:27 10° SW 01:49:06 58° W 01:49:06 58° W
STARLINK-31 4.2 01:46:31 10° WSW 01:50:26 51° NW 01:51:35 37° NNE
STARLINK-1026 3.5 01:48:07 10° SW 01:50:43 54° W 01:50:43 54° W
STARLINK-1013 3.6 01:49:02 10° WSW 01:51:35 52° W 01:51:35 52° W
STARLINK-69 4.4 01:48:24 10° WSW 01:52:16 45° NW 01:53:26 34° N
deb Kosmos-1763 4.2 01:48:38 10° NNW 01:52:18 70° WSW 01:53:17 44° S
STARLINK-1009 3.7 01:49:53 10° WSW 01:52:25 50° W 01:52:25 50° W
STARLINK-21 4.3 01:49:53 10° WSW 01:53:46 47° NW 01:54:48 37° N
STARLINK-1015 3.7 01:50:42 10° WSW 01:53:16 51° W 01:53:16 51° W
Abrixas rocket 3.5 01:51:21 10° NW 01:53:09 33° NW 01:53:09 33° NW
STARLINK-76 4.5 01:54:57 10° WSW 01:58:46 43° NW 01:59:36 37° N
MOS 1 4.1 01:55:03 15° SSE 01:59:46 73° ENE 02:05:25 10° N
Cosmos 1607 3.8 01:54:29 10° NNW 02:00:50 82° ENE 02:03:39 36° SE
Cosmos 1812 3.3 01:58:36 10° NNW 02:02:25 58° W 02:05:05 18° S
Cosmos 2285 Rocket 4.3 02:01:34 10° N 02:07:08 45° NE 02:07:08 45° NE
Cosmos 1943 Rocket 2.7 02:06:10 10° SW 02:11:39 56° WNW 02:17:02 11° NNE
NOSS 2-3 (E) 4.0 02:07:36 10° SSW 02:10:44 50° SSW 02:10:44 50° SSW
USA 234 4.3 02:21:22 28° NNE 02:21:24 28° NNE 02:26:44 10° NNW
NOSS 3-1 (A) 3.9 02:29:40 10° SW 02:34:56 53° NW 02:36:36 40° N
Cosmos 2369 Rocket 3.1 02:30:14 10° SW 02:35:36 46° WNW 02:39:01 22° N
CZ-2C R/B 4.2 02:54:25 44° WSW 02:55:15 47° W 03:00:52 10° NNW
H-2A R/B 3.7 02:59:43 27° SW 03:01:07 31° W 03:05:53 10° NNW
USA 267 4.5 03:32:39 35° NW 03:32:39 35° NW 03:37:44 10° W
USA 229 DEB 4.3 10:03:48 59° E 10:03:48 59° E 10:10:30 10° SE
USA 229 4.3 10:03:51 59° E 10:03:51 59° E 10:10:34 10° SE
USA 267 3.9 10:12:18 10° SE 10:16:43 47° SE 10:16:43 47° SE
Lacrosse 5 4.0 10:24:31 19° NNE 10:25:02 19° NNE 10:28:38 10° ENE
CZ-2C R/B 3.7 10:33:47 10° NNE 10:36:50 36° NNE 10:36:50 36° NNE
GEOS 3 Rocket 3.8 10:37:03 10° NE 10:41:55 70° ENE 10:41:55 70° ENE
ALOS 4.2 10:52:08 10° NE 10:56:10 28° E 11:00:11 10° SSE
Cosmos 2221 3.6 10:54:45 13° SSE 10:58:19 42° E 11:02:23 10° NNE
CZ-4C R/B 4.4 11:02:53 12° NNW 11:02:53 12° NNW 11:04:19 10° N
STARLINK-1061 4.4 11:03:46 47° SE 11:03:46 47° SE 11:06:46 10° SE
Cosmos 1943 Rocket 3.1 11:00:41 10° N 11:05:57 45° ENE 11:11:12 10° SE
NOSS 3-1 (C) 4.1 11:03:56 44° WNW 11:06:17 58° WSW 11:14:50 10° SSE
STARLINK-1067 4.1 11:08:35 53° SE 11:08:35 53° SE 11:11:48 10° SE
STARLINK-1058 3.9 11:13:23 58° SSE 11:13:23 58° SSE 11:16:46 10° SE
Meteor PRIRODA 4.2 11:09:14 10° NNE 11:12:52 55° E 11:13:48 41° SSE
Cosmos 2297 3.7 11:14:19 54° WSW 11:14:19 54° WSW 11:19:25 10° S
SL-16 R/B 3.4 11:16:00 27° NNW 11:16:00 27° NNW 11:19:20 10° N
STARLINK-1098 4.4 11:15:53 41° SSE 11:16:36 46° SE 11:20:27 10° ENE
STARLINK-1043 3.8 11:18:06 60° S 11:18:06 60° S 11:21:39 10° SE
Cosmos 614 Rocket 4.0 11:16:14 12° S 11:20:56 78° ESE 11:26:08 10° NNE
STARLINK-1123 4.2 11:20:19 42° S 11:21:11 51° SE 11:25:05 10° ENE
STARLINK-1065 3.7 11:22:57 60° SSW 11:22:57 60° SSW 11:26:41 10° SE
Milstar 3 4.5 11:15:14 30° WSW 11:23:43 52° SSW 11:33:05 10° ESE
Aureole 1 Rocket 4.4 11:18:22 10° SSW 11:25:33 84° WNW 11:34:05 10° NNE
STARLINK-1097 4.0 11:24:48 42° S 11:25:50 57° SE 11:29:47 10° NE
STARLINK-1063 3.7 11:27:40 56° SSW 11:27:40 56° SSW 11:31:31 10° SSE
FENGYUN 3A 4.1 11:22:43 10° NNE 11:28:08 63° E 11:33:30 10° S
Cosmos 1603 3.6 11:25:17 13° SSW 11:30:23 83° WNW 11:36:07 10° NNE
Cosmos 1484 Rocket 2.6 11:26:36 10° N 11:30:33 76° WNW 11:32:38 27° SSW
STARLINK-1099 3.8 11:29:27 40° SSW 11:30:40 64° SE 11:34:38 10° NE
Cosmos 2369 Rocket 2.8 11:25:50 10° NNW 11:31:30 59° ENE 11:37:06 10° SE
STARLINK-1064 3.8 11:32:24 51° SW 11:32:24 51° SW 11:36:22 10° SSE
STARLINK-1104 3.7 11:33:54 38° SSW 11:35:17 71° SE 11:39:18 10° NE
BREEZE-M DEB (TANK) 3.8 11:33:57 21° SSW 11:36:07 49° SE 11:40:37 10° ENE
Cosmos 1943 3.2 11:30:36 10° SSW 11:36:12 84° ESE 11:41:51 10° NNE
STARLINK-1041 3.9 11:37:13 45° SW 11:37:23 45° SW 11:41:20 10° SSE
SKYMED 2 3.8 11:34:06 10° SSE 11:38:25 72° ENE 11:42:45 10° N
Cosmos 1605 Rocket 4.1 11:33:33 10° NNW 11:39:27 47° W 11:45:14 10° SSW
STARLINK-1144 3.5 11:38:10 36° SW 11:39:43 79° SE 11:43:45 10° NE
STARLINK-1070 3.6 11:41:54 37° N 11:41:54 37° N 11:44:06 10° NE
Cosmos 1992 Rocket 4.4 11:40:48 34° WNW 11:41:49 37° W 11:46:34 10° SSW
STARLINK-1124 4.0 11:42:49 29° N 11:42:49 29° N 11:44:47 10° NNE
STARLINK-1066 3.6 11:42:55 37° N 11:42:55 37° N 11:45:08 10° NE
STARLINK-1038 4.0 11:42:03 40° WSW 11:42:22 41° SW 11:46:16 10° SSE
STARLINK-1081 3.6 11:43:10 37° N 11:43:10 37° N 11:45:24 10° NE
STARLINK-1069 3.6 11:43:35 37° N 11:43:35 37° N 11:45:49 10° NE
STARLINK-1085 3.6 11:43:49 37° N 11:43:49 37° N 11:46:05 10° NE
STARLINK-1086 3.6 11:44:02 37° N 11:44:02 37° N 11:46:17 10° NE
STARLINK-1095 3.6 11:44:14 37° N 11:44:14 37° N 11:46:30 10° NE
STARLINK-1077 3.6 11:44:27 36° N 11:44:27 36° N 11:46:43 10° NE
STARLINK-1075 3.6 11:44:40 37° N 11:44:40 37° N 11:46:56 10° NE
STARLINK-1103 3.5 11:42:36 33° SW 11:44:21 87° SE 11:48:23 10° NE
STARLINK-1093 3.6 11:44:53 36° N 11:44:53 36° N 11:47:10 10° NE
STARLINK-1074 3.6 11:45:06 36° N 11:45:06 36° N 11:47:23 10° NE
STARLINK-1087 3.6 11:45:20 36° N 11:45:20 36° N 11:47:37 10° NE
STARLINK-1088 3.6 11:45:33 36° N 11:45:33 36° N 11:47:50 10° NE
STARLINK-1115 3.6 11:45:45 36° N 11:45:45 36° N 11:48:04 10° NE
STARLINK-1076 3.6 11:45:58 36° N 11:45:58 36° N 11:48:18 10° NE
STARLINK-1092 3.6 11:46:10 36° NNW 11:46:10 36° NNW 11:48:30 10° NE
STARLINK-1080 3.6 11:46:24 36° NNW 11:46:24 36° NNW 11:48:43 10° NE
STARLINK-1090 3.6 11:46:37 36° NNW 11:46:37 36° NNW 11:48:57 10° NNE
CZ-4B R/B 3.9 11:42:52 10° N 11:44:51 25° NNW 11:44:51 25° NNW
PSLV R/B 3.5 11:42:29 10° N 11:46:14 75° WNW 11:50:02 10° SSW
STARLINK-1089 3.6 11:46:50 36° NNW 11:46:50 36° NNW 11:49:11 10° NNE
STARLINK-1107 3.6 11:47:03 36° NNW 11:47:03 36° NNW 11:49:23 10° NNE
STARLINK-1109 3.6 11:47:13 36° NNW 11:47:13 36° NNW 11:49:35 10° NNE
STARLINK-1091 3.6 11:47:29 36° NNW 11:47:29 36° NNW 11:49:51 10° NNE
STARLINK-1072 3.6 11:47:42 36° NNW 11:47:42 36° NNW 11:50:05 10° NNE
STARLINK-1046 4.2 11:46:50 35° WSW 11:47:21 37° SW 11:51:09 10° SSE
STARLINK-1096 3.6 11:47:57 35° NNW 11:47:57 35° NNW 11:50:17 10° NNE
STARLINK-1079 3.5 11:48:08 35° NNW 11:48:08 35° NNW 11:50:31 10° NNE
STARLINK-1116 3.6 11:48:21 35° NNW 11:48:21 35° NNW 11:50:45 10° NNE
STARLINK-1128 3.4 11:46:39 32° SW 11:48:25 83° NW 11:52:25 10° NE
STARLINK-1094 3.6 11:48:47 35° NNW 11:48:47 35° NNW 11:51:11 10° NNE
STARLINK-1117 3.6 11:48:59 35° NNW 11:48:59 35° NNW 11:51:24 10° NNE
STARLINK-1078 3.6 11:49:13 35° NNW 11:49:13 35° NNW 11:51:38 10° NNE
STARLINK-1101 3.4 11:47:06 30° SW 11:49:00 85° NW 11:53:02 10° NE
STARLINK-1108 3.6 11:49:24 35° NNW 11:49:24 35° NNW 11:51:50 10° NNE
Shenzhou-11 Module 1.7 11:49:24 61° N 11:49:24 61° N 11:51:57 10° ENE
STARLINK-1071 3.6 11:49:40 35° NNW 11:49:40 35° NNW 11:52:04 10° NNE
Meteor 2-3 Rocket 3.8 11:43:55 10° NNW 11:49:31 56° W 11:55:10 10° S
Cosmos 1500 Rocket 3.4 11:45:07 10° NNW 11:49:32 67° W 11:53:52 10° S
STARLINK-1110 3.6 11:49:51 35° NNW 11:49:51 35° NNW 11:52:17 10° NNE
STARLINK-1122 3.6 11:50:17 34° NNW 11:50:17 34° NNW 11:52:45 10° NNE
STARLINK-1126 3.6 11:50:30 34° NNW 11:50:30 34° NNW 11:52:58 10° NNE
STARLINK-1082 3.6 11:50:44 34° NNW 11:50:44 34° NNW 11:53:11 10° NNE
STARLINK-1100 3.6 11:50:55 34° NNW 11:50:55 34° NNW 11:53:23 10° NNE
STARLINK-1083 3.6 11:51:10 34° NNW 11:51:10 34° NNW 11:53:38 10° NNE
CZ-4B R/B 4.2 11:45:59 10° NNE 11:51:07 48° E 11:56:11 10° S
STARLINK-1125 3.6 11:51:23 34° NNW 11:51:23 34° NNW 11:53:52 10° NNE
STARLINK-1039 4.4 11:51:37 31° WSW 11:52:17 33° SW 11:56:00 10° SSE
STARLINK-1113 3.4 11:51:07 29° WSW 11:53:04 76° NW 11:57:03 10° NE
Cosmos 1153 Rocket 4.5 11:47:23 10° NNW 11:53:22 57° W 11:59:20 10° S
STARLINK-1102 3.4 11:51:34 27° SW 11:53:40 78° NW 11:57:42 10° NE
Cosmos 1238 4.1 11:53:33 10° SSW 11:56:37 54° W 11:59:35 10° N
